Weather Roundup
Issued by NWS

Home | Current Version | Previous Version | Graphics & Text | Print | Product List | Glossary Off
Versions: 1 2 3 4 5 6 7 8 9 10 11 12 13 14 15 16 17 18 19 20 21 22 23 24 25 26 27 28 29 30 31 32 33 34 35 36 37 38 39 40 41 42 43 44 45 46 47 48 49 50

000
NZUS93 KARX 212210
HRRWXR

CURRENT HOURLY OBSERVATIONS ACROSS
MUCH OF THE UPPER MISSISSIPPI VALLEY
NATIONAL WEATHER SERVICE LA CROSSE WI
400 PM CST FRI NOV 21 2014


...SOUTHEAST MINNESOTA...


CITY           SKY/WX    TMP DP  RH WIND       PRES   REMARKS
ROCHESTER      MOCLDY    25  16  68 S16       30.07F WCI  12
ROCHESTER/MAYO FAIR      26  15  61 SE16      30.07F WCI  14
WINONA         PTCLDY    32  14  47 S7        30.13F WCI  26
AUSTIN         FAIR      27  18  69 S14G21    30.07F WCI  15
ALBERT LEA     PTCLDY    28  21  74 S13G20    30.05F WCI  18
DODGE CENTER   PTCLDY    27  19  74 S21       30.04F WCI  13
PRESTON        MOCLDY    25  16  68 S13       30.10F WCI  13
OWATONNA       PTCLDY    27  19  74 S18G26    30.02F WCI  13
FARIBAULT      PTCLDY    28  19  69 S16G22    30.02F WCI  17
$$

...ELSEWHERE IN MINNESOTA...


CITY           SKY/WX    TMP DP  RH WIND       PRES   REMARKS
MINNEAPOLIS    CLOUDY    27  17  66 SE13      30.01F WCI  16
INTNL FALLS    MOCLDY    30  17  58 SW14G21   29.68S WCI  19
DULUTH         PTCLDY    27  16  63 SW18G26   29.86F WCI  14
RED WING       CLEAR     28  16  59 S12       30.07F WCI  18
REDWOOD FALLS  FAIR      34  26  72 S18       29.92F WCI  23
MANKATO        MOCLDY    28  19  69 S14G24    30.00F WCI  17
WORTHINGTON    PTCLDY    30  25  80 S25       29.92F WCI  16
FAIRMONT       PTCLDY    28  21  74 SE22      30.00S WCI  15
$$

...SOUTHWEST WISCONSIN...


CITY           SKY/WX    TMP DP  RH WIND       PRES   REMARKS
LA CROSSE      PTCLDY    30  11  45 S14       30.16F WCI  19
PRAIRIE DU CHI CLEAR     31  11  44 E6        30.20F WCI  25
BOSCOBEL       CLEAR     30   9  41 S5        30.22F WCI  25
LONE ROCK      CLEAR     32   9  38 S8        30.23F WCI  25
PLATTEVILLE    CLEAR     29  12  49 SE10      30.22F WCI  20
FORT MC COY    PTCLDY    29   6  38 S7        30.17F WCI  22
CAMP DOUGLAS   PTCLDY    29   8  39 S9G20     30.17F WCI  21
VIROQUA        FAIR      27  10  49 S12       30.15F WCI  16
WIS DELLS      PTCLDY    29   7  40 S8        30.20F WCI  21
$$

...ELSEWHERE IN WISCONSIN...


CITY           SKY/WX    TMP DP  RH WIND       PRES   REMARKS
MILWAUKEE      PTCLDY    31   1  28 S12       30.29F WCI  22
MADISON        PTCLDY    30   6  36 S14       30.24F WCI  19
GREEN BAY      PTCLDY    27   9  46 S13       30.22F WCI  16
EAU CLAIRE     PTCLDY    25   9  50 S12       30.08F WCI  14
BLACK RVR FLS  FAIR      28   5  36 S6        30.14F WCI  22
MEDFORD        PTCLDY    22   7  51 S14       30.07F WCI  10
WAUSAU         CLOUDY    25   6  44 S13       30.11F WCI  14
WIS RAPIDS     CLEAR     28   4  35 S9        30.17F WCI  19
MARSHFIELD     CLEAR     26   8  46 S13       30.12F WCI  15
RICE LAKE      PTCLDY    24  12  60 SE14      30.04F WCI  12
$$

...NORTHEAST IOWA...


CITY           SKY/WX    TMP DP  RH WIND       PRES   REMARKS
DECORAH        PTCLDY    27  14  59 S12       30.13F WCI  16
MASON CITY     MOCLDY    28  21  75 S20       30.10S WCI  15
CHARLES CITY   MOCLDY    30  19  64 S18       30.13S WCI  18
OELWEIN        PTCLDY    28  18  64 SE12      30.17S WCI  18
$$

...ELSEWHERE IN IOWA...


CITY           SKY/WX    TMP DP  RH WIND       PRES   REMARKS
DES MOINES     CLOUDY    38  24  57 S14       30.13F WCI  30
IOWA CITY      MOCLDY    34  15  46 SE10      30.24S WCI  26
FORT DODGE     MOCLDY    34  21  60 S8        30.07F WCI  27
$$

...NORTHERN ILLINOIS...


CITY           SKY/WX    TMP DP  RH WIND       PRES   REMARKS
CHICAGO-OHARE  PTCLDY    32   2  27 S12       30.32F WCI  23
CHICAGO-MIDWAY PTCLDY    34   3  27 S10G21    30.34F WCI  26
MOLINE         CLEAR     34   6  31 SE13      30.26S WCI  25
ROCKFORD       PTCLDY    32   3  29 S14       30.31S WCI  22
PEORIA         PTCLDY    36   9  32 SE8       30.30F WCI  30
$$

NOTE: "FAIR" INDICATES FEW OR NO CLOUDS BELOW 12,000 FEET WITH NO
SIGNIFICANT WEATHER AND/OR OBSTRUCTIONS TO VISIBILITY. WIND
SPEEDS ARE IN MILES-PER-HOUR.



USA.gov is the U.S. government's official web portal to all federal, state and local government web resources and services.